Location: Unspecified
(0.0000°N, 0.0000°E)
Time: 19:45:09
(UTC+00:00)

STARLINK-34647 - Visible Passes

Search period start: 10 November 2025 00:00
Search period end: 20 November 2025 00:00
Orbit: 446 x 447 km, 53.2° (Epoch: 08 November)

Date Brightness Start Highest point End Pass type
(mag) Time Alt. Az. Time Alt. Az. Time Alt. Az.
14 Nov 4.6 18:44:49 10° N 18:46:40 21° NNE 18:46:40 21° NNE visible
15 Nov 5.9 19:42:30 10° WNW 19:45:04 19° SW 19:46:10 17° SSW visible
16 Nov 5.0 19:02:07 10° WNW 19:05:17 33° SW 19:08:29 10° S visible
17 Nov 3.6 18:21:55 10° NW 18:25:22 64° WSW 18:28:49 10° SSE visible
